Showing default

HAWK-B, 43794

Orbit data source: Space-Track

HAWK-B, 43794 is a payload satellite owned by HawkEye 360 (US) in SSO that was launched on Mon, 03 Dec 2018 UTC via an FALCON 9 launch vehicle from the Air Force Western Test Range (AFWTR). Payload-class satellites include a variety of spacecraft equipped with specific instruments for various scientific and technological missions. These include communications satellites like Starlink; space stations such as the ISS; scientific satellites like the Hubble; Earth observation satellites from companies like Planet Labs, Umbra, and HawkEye 360; GPS; miniature CubeSats for education and research; and military/defense satellites.

Loading next visibility...
Identifier
43794, 2018-099AN
Orbit
SSO
Country
Flag of USUS
Related business
Manufacturer
UTIAS-SFL
Mission
Operational Commercial Sigint
Bus & Motor
NEMO-V1, Unknown motor
Mass
12.75 kg wet, 12 kg dry
Launch date (UTC)
2018-12-03 (7 years ago)
Launch vehicle
FALCON 9
Launch site
Air Force Western Test Range (AFWTR)
Object type
Payload
Rocket body
Debris
Shape & HBR
Box + 2 Pan, 1.0 m
Radar Cross Section
0.348 m², Medium (>0.1 m² and < 1m²)

Expand to show TLE details & history
Last TLE update: 12 hours ago

TLE from 12 hours ago
0 HAWK-B
1 43794U 18099AN  26037.14149368  .00010663  00000-0  47552-3 0  9990
2 43794  97.4167  90.8043 0034394  45.2330 315.1695 15.21041292393100
Epoch: 2026-02-06T03:23Z
TLE epoch observation values (Epoch: 2026-02-06T03:23:45.053Z)
Latitude
-0.00001°
Longitude
-96.41705°
Altitude
489.043 km
Speed
7.63 km/s
True Right ascension
06h 03m 13s
True Declination
0° 00' 00"
Sunlit
Object was in full shadow at epoch
Visualization orbit readout
Latitude
Unknown
Longitude
Unknown
Altitude
Unknown
Speed
Unknown
Apparent Right ascension
Unknown
Apparent Declination
Unknown
Sunlit
N/A
Visualization observer readout
Local Sidereal Time
17:08:03
Azimuth
Unknown
Elevation
Unknown
Doppler factor
Unknown
Orbital elements
Apogee altitude
523.319 km
Perigee altitude
476.008 km
Semi-major axis
6,877.8 km
Eccentricity
0.00344
Inclination
97.4167°
RAAN
90.8043°
Arg. of periapsis
45.233°
True anomaly
314.89079°
Mean anomaly
315.1695°
Eccentric anomaly
315.03023°
Mean motion
3.80512 °/min
Orbital period
94.61 mins
BSTAR
0.00047552
Loading maneuver chart data...
Computing Atmospheric mass density...
Loading historical data...
Loading historical data...
Loading historical data...
Loading historical data...
Loading historical data...
Loading historical data...
Loading historical data...

Documentation

Showing up to 5 results
|